Flag for Switzerland Weather past 2 weeks in Burgdorf, Bern, Switzerland

Now
41 °F

Quite cool.


Feels Like: 39 °F
Forecast: 43 / 51 °F
Wind: 3 mph from North

Location: Bern / Belp

Current Time: Dec 18, 2014 at 10:49:01 PM

Latest Report: Dec 18, 2014 at 10:20 PM


Visibility: 3 mi

Pressure: 30.27 "Hg

Humidity: 100%

Dew point: 41 °F

Location of BurgdorfLocation

Historic Weather in Burgdorf — Graph

°F

Burgdorf temperature yesterday

Maximum temperature yesterday: 41 °F (at 11:50 AM)
Minimum temperature yesterday: 37 °F (at 12:20 AM)
Average temperature yesterday: 39 °F

Past Weeks' High & Low Weather Summary

 TemperatureHumidityPressure
High48 °F (Dec 12, 1:50 PM)100% (Dec 4, 2:20 AM)30.39 "Hg (Dec 4, 2:20 AM)
Low25 °F (Dec 10, 4:20 AM)50% (Dec 12, 1:50 PM)29.86 "Hg (Dec 12, 3:20 PM)
Average38 °F89%30.06 "Hg
* Reported Dec 3 9:20 PM — Dec 18 9:20 PM, Burgdorf, Weather by CustomWeather, © 2014

Note: Actual official high and low records may vary slightly from our data, if they occured in-between our weather recording intervals... More about our weather records

Advertising

Burgdorf weather history for previous 24 hours

 ConditionsComfort  
Time TempWeatherWind HumidityBarometerVisibility
9:20 PM
Dec 18
41 °FPassing clouds.1 mph100%30.27 "Hg5 mi
8:50 PM45 °FPartly cloudy.3 mph100%30.27 "Hg5 mi
8:20 PM45 °FPartly cloudy.5 mph100%30.24 "Hg5 mi
7:50 PM45 °FPartly cloudy.3 mph100%30.24 "Hg5 mi
7:20 PM45 °FPartly cloudy.3 mph100%30.24 "Hg5 mi
6:50 PM45 °FPassing clouds.1 mph100%30.24 "Hg3 mi
6:20 PM45 °FPassing clouds.No wind100%30.21 "Hg4 mi
5:50 PM45 °FOvercast.1 mph100%30.21 "HgN/A
5:20 PM45 °FPassing clouds.1 mph100%30.21 "Hg4 mi
4:20 PM45 °FLow clouds.2 mph100%30.21 "HgN/A
3:50 PM45 °FPartly sunny.1 mph100%30.18 "HgN/A
3:20 PM45 °FBroken clouds.2 mph100%30.18 "HgN/A
2:50 PM45 °FBroken clouds.2 mph93%30.18 "Hg6 mi
2:20 PM45 °FDrizzle. Broken clouds.No wind93%30.18 "Hg4 mi
1:50 PM45 °FDrizzle. Broken clouds.2 mph93%30.15 "Hg4 mi
1:20 PM45 °FBroken clouds.2 mph93%30.15 "Hg5 mi
12:50 PM43 °FLight rain. Partly sunny.5 mph100%30.15 "Hg4 mi
12:20 PM43 °FLight rain. Low clouds.3 mph100%30.15 "Hg4 mi
11:50 AM43 °FLight rain. Low clouds.3 mph100%30.15 "Hg4 mi
11:20 AM43 °FRain. Low clouds.1 mph100%30.15 "Hg3 mi
10:50 AM43 °FLight rain. Low clouds.1 mph93%30.15 "Hg3 mi
10:20 AM43 °FRain. Broken clouds.No wind93%30.15 "Hg2 mi
9:50 AM41 °FDrizzle. Broken clouds.2 mph100%30.15 "Hg3 mi
9:20 AM41 °FBroken clouds.2 mph100%30.12 "Hg2 mi
8:50 AM41 °FLight rain. Fog.2 mph100%30.12 "Hg2 mi
8:20 AM39 °FLight rain. Fog.3 mph100%30.12 "Hg3 mi
7:50 AM39 °FLight rain. Fog.2 mph100%30.12 "Hg3 mi
7:20 AM39 °FLight rain. Fog.2 mph100%30.09 "Hg3 mi
6:50 AM39 °FLight rain. Fog.No wind100%30.09 "Hg2 mi
6:20 AM39 °FLight rain. Fog.5 mph100%30.09 "Hg2 mi
5:50 AM39 °FLight rain. Fog.2 mph100%30.09 "Hg2 mi
5:20 AM39 °FDrizzle. Fog.3 mph100%30.09 "Hg2 mi
4:20 AM39 °FFog.1 mph100%30.09 "Hg2 mi
3:50 AM39 °FFog.1 mph100%30.09 "Hg2 mi
3:20 AM39 °FFog.2 mph100%30.09 "Hg2 mi
2:50 AM39 °FFog.2 mph93%30.09 "Hg1 mi
2:20 AM39 °FFog.1 mph100%30.09 "Hg2 mi
1:50 AM39 °FFog.2 mph100%30.09 "Hg2 mi
1:20 AM39 °FFog.2 mph100%30.07 "Hg2 mi
12:50 AM39 °FDrizzle. Fog.1 mph100%30.07 "Hg2 mi
12:20 AM39 °FFog.1 mph100%30.07 "Hg2 mi
11:50 PM
Dec 17
39 °FFog.3 mph100%30.07 "Hg2 mi
11:20 PM39 °FPartly cloudy.1 mph100%30.07 "Hg4 mi
10:50 PM39 °FSprinkles. Partly cloudy.3 mph100%30.07 "Hg3 mi
10:20 PM39 °FDrizzle. Fog.2 mph100%30.04 "Hg2 mi
Weather by CustomWeather, © 2014

See weather overviewHow to use our weather pages